Dewpoint
27 29 30 30 31 31 33 35 37 40 41 43 45 47 49 50 50 51 53 53 54 55 56 57 59 61 62 63 64 65 65 65 65 64 64 64 64 64 64 63 63 62 62 62 62 62 63 63 63 63 63 64 64 64 64 64 64 64 64 64 64 64 64 64 64 64 64 64 63 63 63 62 62 62 62 61 61 60 60 59 59 59 58 59 59 60 58 58 59 59 59 58 58 58 57 57 57 57 57 56 56 57 58
28 29 30 30 31 31 33 35 37 39 41 43 44 47 47 48 48 49 51 52 53 55 56 57 59 61 62 63 64 65 65 65 64 64 63 63 63 63 63 63 62 62 62 62 62 62 62 62 63 62 63 63 64 64 64 64 64 64 64 64 64 64 64 64 64 64 64 64 63 63 62 62 62 62 62 61 60 60 59 59 59 58 58 58 58 60 58 58 59 59 59 59 58 58 58 57 57 56 56 56 57 57 58
28 30 30 31 31 32 33 35 36 38 39 42 44 45 45 45 45 46 48 50 52 54 55 56 58 60 62 63 64 64 65 64 64 64 63 63 63 62 62 62 62 62 62 62 62 62 62 62 62 62 62 63 63 64 64 64 64 64 64 64 64 64 64 64 64 63 64 64 63 63 62 62 62 62 61 61 60 59 59 59 59 58 58 58 58 59 59 59 59 59 59 59 58 58 58 57 57 56 56 56 57 56 58
27 28 29 30 31 32 33 35 36 39 39 39 41 45 44 44 43 44 46 48 50 53 54 55 57 59 61 63 63 64 64 64 64 64 63 63 63 62 62 62 62 63 63 62 62 62 62 62 62 62 62 62 63 63 64 64 64 64 64 64 64 64 64 64 64 64 64 63 63 63 62 62 62 61 61 60 60 59 59 59 59 58 58 58 58 58 59 59 59 59 59 59 58 57 57 57 57 57 56 56 57 56 57
25 26 27 29 30 31 32 34 35 38 38 39 41 44 44 43 42 43 44 46 48 50 52 54 56 57 61 62 63 64 64 64 64 64 63 63 63 62 62 62 62 63 63 63 63 63 63 62 62 62 62 62 63 64 64 64 64 64 64 64 64 64 64 64 64 64 64 63 63 63 62 62 62 61 61 60 60 60 59 59 59 58 58 58 58 58 58 59 59 58 58 58 58 58 57 57 57 57 57 57 57 55 55
23 25 26 27 28 29 30 32 34 36 39 40 41 43 43 42 42 42 42 44 46 48 50 52 54 56 60 62 63 64 65 64 64 64 63 63 63 63 63 62 63 64 63 63 62 63 63 63 62 62 62 63 63 64 64 64 64 64 64 64 64 64 64 64 64 64 63 63 63 63 62 62 62 61 61 60 60 60 59 59 59 59 58 58 58 58 58 58 57 57 56 57 57 58 58 57 57 57 57 57 56 54 54
22 23 26 26 27 28 29 30 32 34 37 40 41 40 41 41 41 41 42 43 44 46 48 51 53 55 59 61 63 63 65 64 63 63 63 64 64 63 63 63 64 64 64 63 63 63 63 63 63 63 63 63 63 64 64 64 64 64 64 64 64 64 64 64 64 64 63 63 63 63 62 62 62 61 61 61 60 60 59 59 59 59 58 58 58 58 58 57 56 55 55 55 56 57 57 57 57 56 56 56 56 55 53
21 23 25 26 26 27 29 30 31 33 35 37 38 38 39 41 43 42 42 43 44 44 46 49 53 55 57 60 62 63 64 64 64 63 64 64 64 64 64 64 64 64 64 64 64 64 63 63 63 63 63 63 63 63 63 63 64 64 64 64 64 64 65 64 64 64 63 63 63 63 62 62 62 61 61 61 60 60 60 59 59 59 59 58 58 58 57 56 54 53 53 54 54 55 56 57 57 56 55 55 55 56 54
22 23 24 25 26 28 30 31 32 32 32 34 37 39 40 41 42 41 42 42 43 43 45 48 51 54 57 59 61 62 64 65 64 64 64 64 63 63 63 63 63 64 63 63 63 63 63 62 62 62 62 62 62 62 62 62 63 64 64 64 64 64 64 64 64 64 63 63 63 63 63 62 62 61 61 60 60 60 60 59 59 59 59 58 58 57 55 54 53 52 53 53 54 53 55 57 57 56 56 55 55 55 55
23 24 23 24 26 28 29 30 31 32 30 31 35 36 39 40 41 41 41 41 41 42 44 47 50 53 57 59 61 62 63 64 64 64 64 64 63 63 63 62 62 62 62 61 61 61 61 61 61 60 60 61 61 62 62 62 62 63 64 64 64 64 64 64 64 63 63 63 63 63 63 62 62 61 61 61 60 60 60 59 59 59 59 58 57 56 55 54 53 52 52 53 53 53 54 56 57 57 57 56 55 55 54
23 24 24 25 26 27 28 29 30 30 31 32 34 35 39 41 42 41 41 41 41 42 44 46 48 52 56 59 62 62 63 64 64 64 64 64 63 63 62 62 62 61 60 60 60 60 60 60 60 60 60 60 61 61 61 62 62 63 64 64 64 64 64 64 63 63 63 63 63 63 63 62 62 62 61 60 60 60 60 60 59 59 59 58 57 55 55 54 53 52 52 53 53 52 54 56 57 58 57 57 56 55 54
23 23 24 25 26 26 27 28 29 30 31 32 34 35 37 39 41 41 41 42 43 44 44 46 48 51 55 58 61 62 63 63 64 64 64 63 63 63 62 62 61 60 60 60 60 59 60 60 60 60 60 60 61 61 61 62 62 63 63 64 64 64 64 63 63 63 63 63 63 63 63 62 62 62 61 61 60 60 60 59 59 59 58 57 56 55 54 54 53 52 52 52 53 53 54 56 57 58 58 57 56 55 53
21 22 23 24 25 24 26 27 29 31 31 32 33 34 35 37 38 38 38 40 44 45 46 46 48 51 54 57 60 61 62 63 64 64 64 63 63 63 62 62 61 60 60 59 59 59 59 59 60 61 61 61 61 61 61 62 62 62 63 63 64 64 64 64 64 63 63 63 63 63 63 63 62 62 61 61 60 60 59 58 58 58 57 57 56 55 54 54 53 53 52 52 52 53 53 55 57 58 58 57 56 54 52
21 22 23 24 25 26 26 28 29 30 32 33 34 33 33 32 32 33 35 39 43 46 47 48 49 51 55 57 59 61 62 63 64 64 63 62 62 62 62 62 61 60 59 59 59 59 58 59 60 61 61 61 62 61 61 61 62 62 62 63 63 64 64 64 64 64 63 63 63 63 63 62 62 62 62 61 60 59 58 58 57 57 57 56 55 55 55 54 54 53 52 52 52 53 53 55 57 59 59 58 57 55 53
21 22 23 24 26 26 27 28 30 31 32 33 33 31 29 29 30 32 35 38 42 46 48 49 50 52 55 58 60 62 63 63 63 64 63 62 62 62 62 62 61 60 60 59 59 59 58 59 59 60 60 61 62 62 61 61 61 62 62 62 62 63 63 64 64 64 64 63 63 63 63 62 62 62 61 61 60 59 58 57 57 56 56 56 55 55 55 55 55 54 53 52 52 52 53 55 57 58 59 58 57 56 54
21 23 24 25 26 27 28 28 30 31 32 32 30 28 28 29 30 34 37 40 43 46 48 50 51 52 56 58 60 62 63 63 63 64 64 63 62 62 62 61 60 59 60 60 59 59 58 59 60 60 61 62 62 62 62 61 61 62 62 62 62 62 63 63 63 64 64 63 63 63 63 62 62 62 61 61 60 59 58 57 56 56 55 55 55 55 56 56 55 54 54 53 52 52 53 54 56 58 59 58 58 57 56
21 24 26 26 27 28 29 30 30 31 32 30 29 28 30 31 34 37 40 44 46 48 49 51 52 53 56 59 61 62 63 63 63 63 63 63 62 62 62 62 60 59 60 60 59 59 59 59 60 60 61 62 62 62 62 62 61 61 62 62 62 61 62 63 63 63 63 63 63 63 63 62 62 62 61 61 60 59 58 57 57 56 55 55 55 56 56 56 55 54 54 53 53 53 53 54 56 57 58 59 58 57 56
23 25 27 29 30 30 30 30 30 30 31 30 29 29 32 35 38 41 44 47 48 49 51 52 53 54 57 59 61 62 63 63 63 63 63 63 62 62 62 62 61 60 60 60 59 60 60 60 60 60 61 61 61 62 62 61 61 61 62 62 61 61 61 62 63 63 63 63 63 63 62 62 62 62 61 61 60 59 59 58 58 57 56 56 56 56 56 56 55 54 54 53 53 53 54 55 56 57 58 58 58 58 56
28 30 33 34 35 34 33 31 30 30 30 30 30 32 35 39 42 44 47 49 50 51 52 53 54 55 57 59 61 62 63 63 63 63 63 63 62 63 62 61 61 61 61 60 60 60 60 60 60 60 60 61 61 61 61 61 61 61 61 61 61 61 61 62 62 63 63 62 62 63 62 62 62 62 61 61 60 60 59 58 58 58 57 57 56 56 56 56 55 54 53 53 53 53 54 55 57 58 58 58 58 58 57
36 38 39 39 39 39 37 35 33 31 30 30 33 37 40 43 46 48 49 51 52 53 53 54 55 56 57 59 61 62 62 63 63 63 62 62 62 63 62 61 61 61 61 60 60 60 60 60 60 60 60 60 61 61 60 60 61 61 61 62 61 61 61 61 62 62 62 62 62 62 62 62 62 62 62 61 60 59 59 59 58 58 57 57 56 56 56 56 56 55 54 53 52 52 53 55 57 58 58 58 58 57 57
42 42 43 43 43 42 42 40 38 35 32 32 34 39 44 46 48 49 51 52 53 53 54 55 56 57 58 59 61 62 62 63 63 63 62 62 62 63 62 61 61 61 61 60 60 60 60 59 59 60 59 60 60 60 60 60 60 61 61 61 61 61 61 61 61 62 62 62 62 62 62 62 62 62 62 61 61 60 59 59 58 57 57 57 57 57 57 57 57 55 54 53 52 53 53 56 57 58 58 58 57 57 57
44 44 44 44 44 44 44 44 43 40 38 36 36 39 44 48 50 51 52 53 53 54 55 55 56 57 58 59 61 62 62 62 63 63 62 62 62 62 62 62 61 61 61 60 59 60 60 59 59 59 59 59 59 60 59 59 59 60 61 61 61 61 61 61 61 61 61 62 62 62 62 62 62 61 61 61 61 60 59 58 58 57 57 58 58 58 58 57 57 55 55 53 53 53 55 56 57 58 58 58 57 57 57
44 44 44 44 44 44 44 45 44 44 43 41 39 39 44 48 50 51 52 53 53 54 55 56 57 57 58 59 60 61 62 62 62 62 62 62 62 62 62 62 61 61 61 60 59 60 60 59 59 59 59 59 59 59 59 58 59 59 60 60 61 61 61 60 60 60 61 61 62 62 62 62 62 61 61 61 61 60 59 58 57 57 58 58 59 59 58 57 57 55 55 55 54 55 56 57 57 57 58 58 58 57 57
45 45 44 44 44 44 44 44 44 45 45 44 43 41 43 47 50 51 52 53 53 54 56 56 56 57 57 58 60 61 62 62 62 62 62 62 62 62 62 61 61 61 61 60 60 60 59 59 59 59 58 58 58 59 59 58 58 58 59 60 60 61 61 60 60 60 61 61 61 62 62 62 62 61 61 61 61 61 60 58 57 57 57 58 59 59 59 58 57 56 56 56 56 56 57 57 57 57 57 58 58 58 58
45 45 45 44 44 44 44 44 44 44 45 45 45 43 42 44 48 51 52 53 53 54 56 56 57 57 57 58 60 61 61 61 62 62 62 62 62 62 62 61 61 61 61 60 60 60 60 59 59 59 58 58 58 59 59 59 58 58 59 59 60 60 60 60 60 60 61 61 61 62 62 62 62 62 61 61 60 60 60 59 58 57 58 59 59 59 58 58 57 56 57 56 56 57 57 57 57 57 57 58 58 58 58
45 45 45 45 44 44 44 44 44 44 44 45 45 44 43 43 45 49 51 52 53 54 55 56 57 57 57 58 59 61 61 61 61 62 62 62 62 62 62 61 61 61 61 61 60 60 59 59 59 59 57 57 58 59 59 59 59 58 59 59 60 60 60 59 59 59 60 61 61 62 62 62 62 62 61 60 59 59 60 59 58 58 58 59 59 59 59 58 57 57 57 57 57 57 57 57 57 57 57 57 57 58 58
44 45 45 45 45 44 44 43 43 44 44 44 45 46 45 44 44 47 50 51 53 54 55 56 57 57 57 58 59 60 60 60 61 62 62 62 62 62 62 62 62 62 61 61 60 58 58 59 59 59 58 58 58 59 59 59 59 58 59 59 60 61 60 59 58 59 60 61 62 62 62 62 62 62 62 61 60 60 59 59 59 59 58 58 59 59 59 58 57 57 57 57 57 57 57 57 57 57 57 57 57 57 57
44 45 45 45 45 44 44 43 43 43 44 44 45 46 46 44 44 45 48 50 52 53 55 56 57 57 57 58 59 60 60 60 61 62 62 62 62 62 62 62 62 62 61 61 60 60 60 60 60 60 59 59 59 58 59 59 59 58 59 59 60 60 59 59 58 58 59 61 62 62 62 62 62 62 61 61 60 60 59 59 59 59 59 58 58 58 58 58 57 57 57 56 56 57 57 56 56 56 57 57 57 57 57
44 45 45 45 44 44 44 43 43 43 43 44 44 45 45 44 43 43 47 49 51 53 55 56 57 57 57 57 58 59 60 60 61 62 62 62 62 62 61 62 62 62 61 61 61 61 60 60 60 60 60 60 59 58 59 59 59 59 59 59 60 61 60 59 58 58 59 60 60 61 61 62 61 60 61 60 60 59 59 59 59 59 59 58 58 58 58 58 57 57 57 57 57 57 57 56 55 55 56 57 57 57 57
44 45 45 45 44 44 43 43 43 43 43 44 44 44 44 44 43 42 45 48 50 52 54 55 56 57 57 57 58 59 60 60 61 62 62 62 62 61 61 62 62 62 62 61 61 61 61 61 61 60 60 60 60 59 59 60 60 59 59 60 60 60 60 59 59 59 59 58 59 60 61 62 61 61 59 59 60 59 59 59 59 59 59 58 58 58 58 58 57 57 57 57 57 57 56 55 54 55 56 57 57 57 58
44 44 45 45 44 44 43 43 43 43 43 43 44 44 45 44 44 43 44 47 49 52 53 55 56 57 57 57 57 58 59 60 61 61 62 62 62 61 61 61 61 62 62 61 61 61 61 61 61 61 61 60 60 59 60 60 60 60 61 61 61 61 60 60 60 59 58 57 58 60 61 61 61 61 60 60 60 59 59 59 59 59 58 58 58 58 58 58 57 57 57 57 57 57 57 55 54 55 56 56 57 57 57
43 44 44 44 44 44 43 43 43 43 43 43 44 45 45 45 44 43 44 46 49 52 53 55 56 56 56 57 57 58 59 60 60 61 61 61 61 61 61 61 61 62 61 61 61 60 60 60 60 61 60 60 60 60 60 60 61 61 61 61 62 61 61 61 60 59 58 58 59 60 60 61 61 61 60 60 59 59 59 59 58 58 58 58 58 58 58 58 57 57 57 57 57 57 58 57 55 55 56 56 56 57 57
43 44 44 44 44 44 43 42 42 43 43 44 44 45 46 46 45 44 44 46 49 51 53 54 55 56 56 57 57 58 59 59 60 60 61 61 61 61 60 61 61 61 61 61 60 60 60 60 60 60 60 60 60 60 60 60 61 61 61 61 61 62 61 61 61 61 60 59 59 59 60 60 60 60 60 60 60 59 59 58 58 58 57 57 57 57 57 57 57 57 57 57 57 57 58 57 57 55 56 55 56 56 57
42 44 45 45 44 43 43 42 42 43 43 44 44 45 46 47 46 44 44 46 49 51 53 54 55 55 56 57 57 58 59 60 60 60 61 61 60 60 60 61 61 61 61 61 60 60 60 60 60 60 60 60 60 60 60 60 61 61 60 61 61 61 61 61 62 61 61 61 60 59 59 59 59 59 59 59 59 59 58 58 58 57 57 57 57 57 57 57 57 57 57 57 57 57 57 58 57 56 55 54 55 56 56
42 45 45 44 44 43 42 42 42 43 43 44 45 46 47 48 47 44 44 46 49 51 53 54 55 56 56 57 57 58 59 60 60 61 60 60 61 60 60 61 61 61 61 61 61 60 60 60 59 60 60 60 60 60 60 61 60 59 60 61 61 61 61 62 62 62 62 61 61 60 60 60 60 59 59 59 59 58 58 58 58 57 57 57 57 57 57 57 57 57 57 57 57 57 57 57 57 57 56 55 55 56 56
43 45 45 44 43 43 42 42 42 43 43 44 45 48 48 48 46 44 44 46 49 51 53 55 56 56 56 57 57 58 59 59 60 60 60 60 61 60 60 61 61 61 61 61 61 61 60 59 59 60 60 60 60 60 60 61 60 59 60 61 61 60 61 62 62 62 62 61 61 61 61 61 61 60 60 59 59 58 58 58 58 57 57 57 57 57 57 57 57 57 57 57 57 57 57 57 57 57 56 55 55 57 56
44 45 45 44 43 42 42 42 42 43 43 44 46 49 49 47 45 43 44 47 49 52 53 55 56 56 56 57 57 58 59 59 60 60 60 60 60 60 61 61 61 61 61 61 61 60 60 60 60 60 60 60 60 60 60 60 61 61 61 60 60 60 61 61 61 62 61 61 61 61 61 60 60 60 60 59 59 59 59 58 58 58 57 57 57 57 57 57 57 57 57 57 57 57 57 57 57 57 57 56 56 56 56
45 45 44 43 42 42 42 42 42 43 44 44 46 49 50 47 44 43 44 47 50 52 53 55 56 56 56 57 57 58 58 59 59 60 60 60 60 60 60 61 61 61 61 61 60 60 60 60 60 60 60 60 60 60 60 60 60 60 60 60 60 61 61 61 61 61 61 61 61 61 61 60 60 60 60 59 59 59 59 59 58 58 58 57 57 57 57 57 57 57 57 57 57 57 57 57 57 57 57 57 56 56 56
45 44 44 43 42 42 42 42 43 43 44 44 45 49 52 49 45 44 46 48 51 53 54 55 56 57 57 57 57 58 58 59 59 59 59 60 60 60 60 60 61 61 60 60 60 60 60 60 60 60 60 60 60 60 60 60 60 60 60 60 60 61 61 61 61 61 61 60 60 61 60 60 60 60 59 59 59 59 59 59 59 58 58 58 58 58 58 57 57 57 57 57 57 57 57 57 57 57 57 57 57 57 57
45 44 43 43 42 42 42 43 43 43 44 44 45 48 52 52 49 47 48 50 53 54 55 56 56 57 57 57 57 57 58 59 59 59 60 60 60 60 60 60 61 61 60 60 60 60 59 59 59 59 59 60 60 60 60 60 59 60 59 60 60 61 61 61 61 61 60 60 60 60 60 60 60 60 59 59 59 59 59 59 59 58 58 58 58 58 58 58 57 57 57 57 57 57 57 57 57 57 57 57 57 57 57
44 43 43 43 43 42 43 43 43 44 44 44 44 45 52 53 52 51 51 53 54 55 56 56 57 57 57 57 57 57 58 59 59 60 60 60 60 60 60 60 60 60 60 60 59 59 59 59 59 59 59 59 60 60 60 59 59 60 60 60 60 60 61 61 61 61 60 60 60 59 60 60 60 60 59 59 59 59 59 59 59 59 58 58 58 58 58 58 58 58 57 57 57 57 57 57 57 57 57 57 57 57 57
44 43 43 43 43 43 43 43 44 44 44 44 44 44 49 53 53 53 53 54 55 56 56 56 57 57 57 57 57 57 58 59 59 60 60 60 60 60 60 60 60 60 59 59 59 59 59 59 59 59 59 59 60 59 59 59 60 60 60 60 59 59 60 61 60 60 60 60 59 59 59 60 60 59 59 59 59 59 59 59 59 59 59 58 58 58 58 58 58 58 58 58 58 58 57 57 57 57 57 57 57 57 57
43 43 43 43 43 43 43 44 44 44 44 44 44 43 48 52 54 54 54 55 55 56 56 56 56 57 57 57 57 58 58 59 60 60 60 60 60 60 60 60 59 59 59 59 59 58 58 58 59 59 59 59 59 59 59 59 60 60 60 60 59 59 60 60 60 60 60 59 59 59 59 59 59 59 59 59 59 59 59 59 59 59 59 59 59 58 58 58 58 58 58 58 58 58 58 58 57 57 57 57 57 57 57
43 43 43 44 44 44 44 44 44 44 44 43 43 43 46 50 54 54 55 55 56 56 56 56 56 57 57 57 57 58 59 59 60 60 60 60 60 60 59 59 59 59 58 58 58 58 58 58 58 58 58 58 58 58 58 59 60 60 59 59 59 60 60 60 60 60 60 59 59 58 59 58 58 59 59 59 59 59 58 58 58 58 59 59 59 59 59 59 58 58 58 58 58 58 58 58 57 57 57 57 57 57 57
44 44 44 44 44 44 44 44 44 44 43 43 43 43 45 49 53 54 55 55 56 56 56 56 57 57 57 57 58 59 60 60 60 60 59 59 59 59 59 59 59 58 58 58 58 58 58 58 58 58 58 58 58 58 58 58 59 59 59 59 59 59 60 60 60 60 60 59 59 58 58 58 58 58 59 59 59 59 58 58 58 58 58 58 58 58 58 59 59 58 58 58 58 58 58 58 57 57 57 57 57 57 57
44 44 44 44 44 44 44 44 44 44 43 43 43 43 45 49 53 54 55 55 56 56 57 57 57 57 57 58 59 59 60 60 60 60 59 59 59 59 59 59 58 58 58 58 58 58 58 58 58 58 58 58 58 58 58 58 59 59 59 58 59 59 60 60 60 60 60 59 59 58 58 58 58 58 59 59 59 59 58 58 59 59 58 58 58 57 58 58 59 59 58 58 58 58 57 57 57 57 57 57 57 57 57
44 44 44 44 44 44 44 44 44 44 43 43 43 43 46 50 54 55 55 56 56 56 57 57 57 58 58 58 59 59 60 60 59 59 59 59 59 59 58 58 58 58 58 58 58 58 58 58 58 58 58 58 58 57 58 58 58 58 58 58 59 59 60 60 60 60 60 59 59 59 58 58 58 58 59 59 59 58 58 58 59 58 58 58 58 58 58 58 58 58 58 58 58 58 57 57 57 57 57 57 57 57 57
44 43 43 43 44 44 44 44 44 44 43 43 43 44 48 52 55 55 56 57 57 57 57 58 58 58 58 58 59 59 59 59 59 59 59 59 59 58 58 58 58 58 58 58 58 58 58 57 57 57 57 57 57 57 58 58 58 58 58 59 59 59 59 59 59 60 60 59 59 59 59 59 58 58 58 58 58 58 58 58 58 58 58 58 58 58 58 58 58 58 58 58 58 57 57 57 57 57 57 57 57 57 57
43 43 43 43 43 43 44 44 44 44 44 43 44 44 50 53 55 56 57 57 58 57 58 58 58 59 59 59 59 59 59 59 59 59 58 58 58 58 58 58 58 58 58 58 58 58 57 57 57 57 57 57 57 57 57 58 58 58 58 59 59 59 58 58 59 59 59 59 59 59 59 59 58 58 58 58 58 58 58 58 58 58 58 58 58 58 57 57 57 57 57 57 57 57 57 57 57 57 57 57 57 57 57
43 43 43 43 43 43 43 44 44 44 44 44 44 44 52 54 55 56 57 58 58 58 58 58 59 59 59 59 59 59 59 59 58 58 58 58 58 58 58 58 58 58 58 58 58 58 57 57 57 57 57 57 57 57 57 57 58 58 58 58 58 58 58 58 58 58 59 59 59 59 59 59 58 58 58 57 58 58 58 58 58 58 58 58 57 56 52 50 50 52 55 57 57 57 57 57 57 57 57 57 57 57 56
42 42 42 42 42 43 43 43 43 44 44 44 44 44 50 54 56 57 57 57 57 58 58 58 59 59 59 59 59 59 59 58 58 58 58 58 58 58 58 58 58 58 58 58 58 58 57 57 57 57 57 57 57 57 57 57 58 58 58 57 57 57 57 57 58 58 58 58 58 59 59 59 58 58 58 58 58 58 58 58 58 58 58 58 57 53 48 46 46 48 49 52 55 57 57 57 57 56 56 57 56 56 56
42 42 42 42 42 42 42 43 43 44 44 44 44 44 45 48 52 56 57 57 57 57 58 58 58 59 59 59 59 59 58 58 58 58 57 57 57 57 57 58 58 58 58 58 58 58 58 57 57 57 57 57 57 57 57 57 57 57 57 57 57 57 57 57 57 58 58 57 57 59 58 58 58 59 59 59 58 58 58 58 58 58 58 58 56 50 46 44 45 46 46 48 51 57 57 57 57 57 56 56 56 56 56
41 41 41 41 41 41 41 42 42 43 43 44 44 44 44 44 45 49 54 56 57 57 57 58 58 58 59 59 59 58 58 58 58 57 57 57 57 57 57 57 58 58 58 58 58 58 58 58 58 58 57 57 57 57 57 57 57 57 57 57 57 57 57 57 58 58 58 58 58 59 59 58 59 59 59 59 59 58 58 58 58 58 58 57 53 47 44 44 44 45 45 46 48 53 57 57 57 57 56 56 56 56 56
40 40 40 40 40 40 40 41 41 42 43 43 44 43 44 44 44 43 48 53 56 57 57 57 58 58 59 59 59 59 58 58 58 57 57 57 57 57 57 57 57 58 58 58 58 58 58 58 58 58 57 57 57 57 57 57 57 57 57 57 57 57 57 58 58 59 59 59 59 59 59 59 59 59 59 59 59 59 58 57 57 58 58 55 49 43 44 44 45 45 45 44 46 48 55 57 57 57 56 56 56 56 56
40 40 40 40 40 40 40 40 40 41 42 42 42 42 43 44 44 44 44 48 53 56 57 57 58 59 59 59 59 59 58 58 58 57 57 57 57 57 57 57 57 57 58 58 57 57 57 57 57 57 57 57 57 57 57 57 57 57 57 57 57 57 57 58 59 59 59 59 58 59 59 59 59 59 59 59 58 57 57 57 57 57 57 55 49 41 44 44 45 45 44 44 44 46 52 55 57 57 57 57 57 57 57
40 40 39 39 39 39 39 39 39 40 41 41 41 42 42 43 44 43 43 44 47 53 55 57 58 59 59 59 59 59 58 58 58 57 57 57 57 57 57 58 58 58 58 58 57 57 57 57 57 57 57 57 57 57 57 57 57 57 57 57 57 57 58 58 58 58 58 58 58 58 58 58 58 59 58 58 58 57 57 57 57 58 57 54 48 40 43 44 45 45 44 44 44 44 50 54 57 56 55 54 52 51 49
40 40 39 39 39 39 39 39 39 39 40 40 41 41 42 42 43 43 42 43 44 47 53 56 58 59 59 59 58 59 59 58 58 58 58 58 58 58 58 58 58 58 58 58 57 57 57 56 56 56 56 57 57 57 57 57 57 57 57 57 57 57 57 57 58 58 58 58 57 57 57 57 58 58 58 57 57 57 57 57 57 57 57 53 46 40 43 44 44 44 44 43 43 43 47 51 53 50 48 46 44 43 42
39 39 38 38 38 38 38 38 38 38 39 39 39 40 40 41 42 42 42 43 44 45 50 55 57 58 58 58 58 58 58 58 58 58 58 58 58 58 58 58 58 58 58 58 57 57 57 56 56 56 56 57 57 57 57 57 57 57 58 57 57 57 57 58 58 58 58 57 57 57 57 57 57 57 57 56 56 56 57 57 57 56 53 47 42 40 42 43 43 43 43 43 42 41 43 44 44 44 44 43 41 40 40
38 38 37 37 37 37 37 37 37 37 37 38 38 39 39 40 40 41 42 43 44 44 48 53 57 57 57 58 58 58 58 58 58 58 58 58 58 58 58 58 58 59 58 58 57 57 57 57 57 57 57 57 57 57 57 57 57 58 58 57 57 57 57 58 58 58 57 57 57 57 57 57 56 56 56 57 57 57 57 56 55 52 47 42 38 39 41 41 42 41 40 40 40 40 43 44 43 42 41 40 39 38 38